Preview of NWS' New Version of Forecast
This preview is not operational and should not be used for support decisions.

Regional Weather Roundup (RWR)

Issued by National Weather Service (NWS)

                            
000
ASPQ40 PGUM 220810
RWRPQ 
WEATHER ROUNDUP FOR THE MARIANAS AND MICRONESIA
NATIONAL WEATHER SERVICE TIYAN GU
600 PM CHST FRI FEB 22 2019

GUZ001>004-220900-
MARIANA ISLANDS-
  
CITY           SKY/WX    TMP DP  RH WIND       PRES   REMARKS
GUAM AIRPORT   MOCLDY    81  77  89 NE24G30   29.80R                  
ANDERSEN AFB   CLOUDY    79  73  83 NE24G35   29.81R                  
ROTA AIRPORT   CLOUDY    75  73  94 NE21      29.81R                  
TINIAN AP      MOCLDY   N/A N/A N/A E17       29.83R                  
SAIPAN AP      PTCLDY    81  73  78 NE20G35   29.83S                  

$$

PMZ161-220900-
REPUBLIC OF PALAU-
  
CITY           SKY/WX    TMP DP  RH WIND       PRES   REMARKS
KOROR AP       CLOUDY    79  73  83 NE5       29.84R                  
KOROR WSO      NOT AVBL                                               

$$

PMZ171>174-220900-
FEDERATED STATES OF MICRONESIA-
  
CITY           SKY/WX    TMP DP  RH WIND       PRES   REMARKS
YAP AIRPORT    CLOUDY    82  75  78 VRB6      29.81R                  
CHUUK AP       CLOUDY    81  75  83 VRB5      29.76R                  
POHNPEI AP     NOT AVBL                                               
POHNPEI WSO    MOCLDY    82  75  78 E6        29.83R                  
KOSRAE AP      NOT AVBL                                               

$$

PMZ181-220900-
REPUBLIC OF THE MARSHALL ISLANDS-
  
CITY           SKY/WX    TMP DP  RH WIND       PRES   REMARKS
KWAJALEIN AP   PTCLDY    81  70  69 NE17      29.85R                  
MAJURO AP      PTCLDY    82  77  83 NE21      29.85R HX  91           
MAJURO WSO     MOCLDY    82  68  61 E14       29.83R                  

$$